Location: Albany
(42.6526°N, 73.7562°W)
Time: 21:57:35
(UTC+00:00)

Envisat - Pass Details

Date: 19 November 2019
Orbit: 764 x 766 km, 98.1° (Epoch: 11 December)

Event Time Altitude Azimuth Distance (km) Brightness Sun altitude
Rises 22:15:44 0° 146° (SSE) 3,220 6.1 -8.8°
Reaches altitude 10° 22:18:07 10° 140° (SE) 2,298 5.3 -9.2°
Maximum altitude 22:22:52 43° 70° (ENE) 1,074 3.3 -10.0°
Drops below altitude 10° 22:27:39 10° 0° (N) 2,312 5.3 -10.8°
Sets 22:30:04 0° 354° (N) 3,242 6.1 -11.3°
